Big Rapids, MI

11:04 AM EST on December 06, 2019 (GMT -0500)
Roben-Hood

Weather History for KRQB - August, 2019

Change the Weather History Date:

Wednesday, August 21, 2019

  Actual Average Record
Temperature  
Mean Temperature 70 °F -  
Max Temperature 81 °F 78 °F 89 °F (2003)
Min Temperature 60 °F 53 °F 33 °F (2004)
Cooling Degree Days 6    
Growing Degree Days 20 (Base 50)    
Moisture  
Dew Point 64 °F    
Average Humidity 80    
Maximum Humidity 98    
Minimum Humidity 54    
Precipitation  
Precipitation 0.00 in - - ()
Sea Level Pressure  
Sea Level Pressure 29.93 in    
Wind  
Wind Speed 5 mph (West)    
Max Wind Speed 15 mph    
Max Gust Speed 29 mph    
Visibility 7 miles    
Events Fog    
Averages and records for this station are not official NWS values.
T = Trace of Precipitation, MM = Missing Value Source: NWS Daily Summary

Daily Weather History Graph

Daily Weather History Graph

Search for Another Location

Airport or City:

Astronomy

Aug. 21, 2019 Rise Set
Actual Time 6:52 AM EDT 8:36 PM EDT
Civil Twilight 6:22 AM EDT 9:07 PM EDT
Nautical Twilight 5:45 AM EDT 9:44 PM EDT
Astronomical Twilight 5:05 AM EDT 10:23 PM EDT
Moon 11:42 PM EDT (8/21) 12:38 PM EDT (8/21)
Length of Visible Light 14h 44m
Length of Day
13h 43m
Waning Gibbous, 69% of the Moon is Illuminated
Aug 21
Waning Gibbous
Aug 23
Last Quarter
Aug 30
New
Sep 5
First Quarter
Sep 14
Full

Hourly Weather History & Observations

Time (EDT) Temp. Heat Index Dew Point Humidity Pressure Visibility Wind Dir Wind Speed Gust Speed Precip Events Conditions
12:17 AM 67.6 °F - 66.4 °F 96% 29.94 in 2.0 mi Calm Calm - N/A   Clear
12:35 AM 66.7 °F - 65.7 °F 96% 29.94 in 0.5 mi Calm Calm - N/A Fog Fog
12:55 AM 67.3 °F - 66.4 °F 97% 29.95 in 2.5 mi West 4.6 mph - N/A   Scattered Clouds
12:56 AM 67.3 °F - 66.4 °F 97% 29.95 in 2.5 mi West 4.6 mph - N/A   Scattered Clouds
1:18 AM 68.0 °F - 67.1 °F 97% 29.95 in 4.0 mi West 4.6 mph - N/A   Clear
1:36 AM 67.8 °F - 66.7 °F 96% 29.95 in 5.0 mi Calm Calm - N/A   Clear
1:55 AM 66.4 °F - 65.3 °F 96% 29.95 in 2.0 mi Calm Calm - N/A   Scattered Clouds
1:56 AM 66.4 °F - 65.5 °F 97% 29.95 in 1.5 mi Calm Calm - N/A   Scattered Clouds
2:15 AM 65.8 °F - 64.9 °F 97% 29.94 in 0.5 mi Calm Calm - N/A Fog Fog
2:39 AM 66.2 °F - 65.3 °F 97% 29.94 in 0.5 mi West 8.1 mph - N/A Fog Fog
2:57 AM 67.1 °F - 66.2 °F 97% 29.95 in 0.5 mi WNW 3.5 mph - N/A Fog Fog
3:15 AM 66.6 °F - 65.8 °F 98% 29.94 in 0.5 mi Calm Calm - N/A Fog Fog
3:16 AM 66.7 °F - 65.8 °F 97% 29.94 in 0.5 mi Calm Calm - N/A Fog Fog
3:35 AM 68.2 °F - 67.5 °F 98% 29.94 in 0.8 mi West 4.6 mph - N/A   Overcast
3:55 AM 68.9 °F - 68.0 °F 97% 29.94 in 2.5 mi WSW 4.6 mph - N/A   Overcast
4:00 AM 68.9 °F - 68.2 °F 98% 29.94 in 3.0 mi Calm Calm - N/A   Overcast
4:17 AM 69.1 °F - 68.4 °F 98% 29.93 in 3.0 mi West 5.8 mph - N/A   Overcast
4:36 AM 69.1 °F - 68.2 °F 97% 29.93 in 3.0 mi West 6.9 mph - N/A   Overcast
4:55 AM 69.3 °F - 68.4 °F 97% 29.93 in 4.0 mi West 6.9 mph - N/A   Overcast
5:15 AM 69.3 °F - 68.4 °F 97% 29.93 in 3.0 mi West 6.9 mph - N/A   Overcast
5:19 AM 69.3 °F - 68.4 °F 97% 29.93 in 4.0 mi West 5.8 mph - N/A   Overcast
5:38 AM 69.3 °F - 68.4 °F 97% 29.92 in 4.0 mi West 4.6 mph - N/A   Overcast
5:56 AM 69.3 °F - 68.4 °F 97% 29.92 in 4.0 mi West 4.6 mph - N/A   Overcast
6:15 AM 69.4 °F - 68.5 °F 97% 29.92 in 4.0 mi Calm Calm - N/A   Overcast
6:35 AM 69.3 °F - 68.4 °F 97% 29.92 in 3.0 mi SW 3.5 mph - N/A   Overcast
6:36 AM 69.3 °F - 68.4 °F 97% 29.92 in 3.0 mi SSW 4.6 mph - N/A   Overcast
6:59 AM 69.4 °F - 68.5 °F 97% 29.91 in 2.0 mi West 3.5 mph - N/A   Overcast
7:17 AM 69.4 °F - 68.5 °F 97% 29.91 in 1.0 mi West 6.9 mph - N/A   Overcast
7:35 AM 69.8 °F - 68.9 °F 97% 29.90 in 1.5 mi West 5.8 mph - N/A   Overcast
7:55 AM 69.8 °F - 68.9 °F 97% 29.90 in 2.5 mi Calm Calm - N/A   Overcast
7:56 AM 69.8 °F - 68.9 °F 97% 29.90 in 2.5 mi Calm Calm - N/A   Overcast
8:15 AM 69.8 °F - 68.9 °F 97% 29.89 in 3.0 mi Calm Calm - N/A   Overcast
8:20 AM 69.8 °F - 68.9 °F 97% 29.89 in 3.0 mi Calm Calm - N/A   Overcast
8:38 AM 69.8 °F - 68.9 °F 97% 29.89 in 4.0 mi SW 4.6 mph - N/A   Overcast
8:56 AM 70.0 °F - 68.9 °F 96% 29.89 in 5.0 mi WSW 4.6 mph - N/A   Overcast
9:15 AM 70.7 °F - 69.4 °F 96% 29.91 in 7.0 mi SW 6.9 mph - N/A   Overcast
9:16 AM 70.7 °F - 69.4 °F 96% 29.91 in 7.0 mi SW 6.9 mph - N/A   Overcast
9:35 AM 71.4 °F - 69.8 °F 95% 29.93 in 7.0 mi West 8.1 mph - N/A   Overcast
9:36 AM 71.4 °F - 69.8 °F 95% 29.93 in 7.0 mi West 6.9 mph - N/A   Overcast
9:59 AM 72.9 °F - 70.0 °F 91% 29.93 in 10.0 mi West 9.2 mph - N/A   Overcast
10:17 AM 73.4 °F - 68.7 °F 85% 29.92 in 10.0 mi West 6.9 mph - N/A   Overcast
10:35 AM 73.6 °F - 68.2 °F 83% 29.92 in 10.0 mi WSW 10.4 mph - N/A   Overcast
10:36 AM 73.6 °F - 68.2 °F 83% 29.92 in 10.0 mi WSW 9.2 mph - N/A   Overcast
10:55 AM 74.3 °F - 68.9 °F 83% 29.92 in 10.0 mi WSW 9.2 mph - N/A   Overcast
11:15 AM 74.5 °F - 68.2 °F 81% 29.93 in 10.0 mi West 6.9 mph - N/A   Overcast
11:20 AM 75.2 °F - 68.7 °F 80% 29.93 in 10.0 mi West 6.9 mph - N/A   Overcast
11:38 AM 76.5 °F - 68.0 °F 75% 29.93 in 10.0 mi West 8.1 mph - N/A   Mostly Cloudy
11:56 AM 79.5 °F - 67.8 °F 67% 29.92 in 10.0 mi West 10.4 mph - N/A   Mostly Cloudy
12:15 PM 79.0 °F - 66.4 °F 65% 29.92 in 10.0 mi West 9.2 mph - N/A   Mostly Cloudy
12:16 PM 79.2 °F - 66.4 °F 65% 29.92 in 10.0 mi West 8.1 mph 11.5 mph N/A   Mostly Cloudy
12:35 PM 80.4 °F 82.3 °F 65.5 °F 60% 29.92 in 10.0 mi West 11.5 mph - N/A   Mostly Cloudy
12:59 PM 79.7 °F - 64.8 °F 60% 29.92 in 10.0 mi WNW 12.7 mph 18.4 mph N/A   Mostly Cloudy
1:16 PM 80.2 °F 81.9 °F 64.4 °F 58% 29.91 in 10.0 mi West 11.5 mph 16.1 mph N/A   Overcast
1:35 PM 81.5 °F 83.1 °F 64.6 °F 56% 29.91 in 10.0 mi West 15.0 mph - N/A   Overcast
1:55 PM 81.0 °F 82.3 °F 63.3 °F 55% 29.91 in 10.0 mi WNW 11.5 mph 17.3 mph N/A   Mostly Cloudy
2:18 PM 81.3 °F 82.7 °F 63.5 °F 55% 29.91 in 10.0 mi West 11.5 mph 17.3 mph N/A   Mostly Cloudy
2:36 PM 81.5 °F 82.8 °F 63.1 °F 54% 29.91 in 10.0 mi West 13.8 mph 19.6 mph N/A   Mostly Cloudy
2:55 PM 81.5 °F 82.8 °F 63.3 °F 54% 29.90 in 10.0 mi West 13.8 mph 18.4 mph N/A   Scattered Clouds
3:15 PM 80.8 °F 82.1 °F 63.1 °F 55% 29.90 in 10.0 mi West 13.8 mph 28.8 mph N/A   Mostly Cloudy
3:39 PM 79.9 °F - 63.7 °F 58% 29.90 in 10.0 mi West 15.0 mph 23.0 mph N/A   Mostly Cloudy
3:56 PM 81.3 °F 82.9 °F 64.0 °F 56% 29.90 in 10.0 mi WNW 13.8 mph 21.9 mph N/A   Scattered Clouds
4:15 PM 80.6 °F 82.3 °F 64.6 °F 58% 29.90 in 10.0 mi WNW 13.8 mph 19.6 mph N/A   Scattered Clouds
4:16 PM 80.4 °F 82.1 °F 64.4 °F 58% 29.90 in 10.0 mi WNW 11.5 mph 19.6 mph N/A   Scattered Clouds
4:35 PM 77.9 °F - 64.9 °F 64% 29.91 in 10.0 mi WNW 10.4 mph 16.1 mph N/A   Mostly Cloudy
4:36 PM 77.9 °F - 64.9 °F 64% 29.91 in 10.0 mi WNW 10.4 mph 16.1 mph N/A   Mostly Cloudy
4:58 PM 77.0 °F - 64.6 °F 65% 29.92 in 10.0 mi NW 10.4 mph 17.3 mph N/A   Mostly Cloudy
5:16 PM 75.2 °F - 63.3 °F 66% 29.93 in 10.0 mi NW 15.0 mph 24.2 mph N/A   Mostly Cloudy
5:35 PM 74.5 °F - 63.3 °F 68% 29.93 in 10.0 mi NW 9.2 mph 23.0 mph N/A   Mostly Cloudy
5:55 PM 73.4 °F - 60.8 °F 65% 29.94 in 10.0 mi NW 11.5 mph 23.0 mph N/A   Scattered Clouds
6:19 PM 73.4 °F - 60.3 °F 63% 29.94 in 10.0 mi NW 10.4 mph 16.1 mph N/A   Clear
6:37 PM 72.7 °F - 59.2 °F 62% 29.94 in 10.0 mi WNW 10.4 mph 16.1 mph N/A   Clear
6:55 PM 72.7 °F - 57.7 °F 59% 29.93 in 10.0 mi NW 10.4 mph - N/A   Clear
6:56 PM 72.5 °F - 57.6 °F 59% 29.93 in 10.0 mi NW 10.4 mph 17.3 mph N/A   Clear
7:15 PM 71.1 °F - 55.0 °F 57% 29.93 in 10.0 mi NW 10.4 mph - N/A   Clear
7:35 PM 71.2 °F - 54.7 °F 56% 29.93 in 10.0 mi NNW 10.4 mph - N/A   Clear
7:39 PM 71.1 °F - 55.2 °F 57% 29.93 in 10.0 mi NW 10.4 mph - N/A   Clear
7:58 PM 70.2 °F - 55.6 °F 60% 29.92 in 10.0 mi North 8.1 mph - N/A   Clear
8:16 PM 69.1 °F - 55.8 °F 62% 29.92 in 10.0 mi WNW 8.1 mph - N/A   Clear
8:35 PM 68.4 °F - 55.6 °F 64% 29.92 in 10.0 mi WNW 10.4 mph - N/A   Clear
8:55 PM 67.3 °F - 56.3 °F 68% 29.93 in 10.0 mi WNW 9.2 mph - N/A   Clear
8:56 PM 67.1 °F - 56.3 °F 68% 29.93 in 10.0 mi WNW 8.1 mph - N/A   Clear
9:19 PM 65.3 °F - 56.5 °F 73% 29.93 in 10.0 mi WNW 4.6 mph - N/A   Clear
9:37 PM 63.0 °F - 57.0 °F 81% 29.94 in 10.0 mi Calm Calm - N/A   Clear
9:55 PM 63.5 °F - 56.5 °F 78% 29.94 in 10.0 mi Calm Calm - N/A   Clear
9:56 PM 63.3 °F - 56.5 °F 78% 29.94 in 10.0 mi North 3.5 mph - N/A   Clear
10:15 PM 62.6 °F - 57.0 °F 82% 29.95 in 10.0 mi West 3.5 mph - N/A   Clear
10:16 PM 62.6 °F - 56.8 °F 81% 29.95 in 10.0 mi West 3.5 mph - N/A   Clear
10:39 PM 61.7 °F - 55.9 °F 81% 29.95 in 10.0 mi Calm Calm - N/A   Clear
10:57 PM 60.4 °F - 56.7 °F 87% 29.96 in 10.0 mi Calm Calm - N/A   Clear
11:15 PM 60.1 °F - 57.0 °F 90% 29.97 in 10.0 mi NW 4.6 mph - N/A   Clear
11:35 PM 61.9 °F - 55.8 °F 80% 29.97 in 10.0 mi Calm Calm - N/A   Clear
11:36 PM 61.9 °F - 55.8 °F 80% 29.97 in 10.0 mi Calm Calm - N/A   Clear
11:55 PM 61.7 °F - 55.6 °F 80% 29.98 in 10.0 mi NW 4.6 mph - N/A   Clear